Regional Weather Roundup
Issued by NWS

Home | Current Version | Previous Version | Graphics & Text | Print | Product List | Glossary Off
Versions: 1 2 3 4 5 6 7 8 9 10 11 12 13 14 15 16 17 18 19 20 21 22 23 24 25 26 27 28 29 30 31 32 33 34 35 36 37 38 39 40 41 42 43 44 45 46 47 48 49

000
ASUS45 KBOU 232207
RWRCO

WEATHER ROUNDUP FOR COLORADO
NATIONAL WEATHER SERVICE DENVER/BOULDER CO
400 PM MDT SUN APR 23 2017

NOTE: "FAIR" INDICATES FEW OR NO CLOUDS BELOW 12000 FEET WITH NO
SIGNIFICANT WEATHER AND/OR OBSTRUCTIONS TO VISIBILITY.

COZ001>005-013-030-031-232300-
...NORTHWEST COLORADO...

CITY           SKY/WX    TMP DP  RH WIND       PRES   REMARKS
CRAIG          FAIR      67  26  21 SW14G25   29.80F
HAYDEN         FAIR      64  23  20 SW22      29.83F
MEEKER         FAIR      69  23  17 S12G20    29.82F
MOUNT WERNER   NOT AVBL
STEAMBOAT SPGS FAIR      64  24  22 SW13G25   29.85F
WALDEN           N/A     61  19  20 W22G28    29.90F
$$

COZ006>008-011-232300-
...WEST CENTRAL VALLEYS...

CITY           SKY/WX    TMP DP  RH WIND       PRES   REMARKS
GRAND JUNCTION FAIR      74  26  16 W13       29.77F
MONTROSE       FAIR      73  20  13 SW14G29   29.83F
EAGLE          MOSUNNY   70  21  16 SW20G28   29.84F
RIFLE          FAIR      74  20  13 SW8G20    29.78F
DELTA          FAIR      81  20  10 SW18G25   29.80F
NUCLA          FAIR      73  12   9 S23G35    29.90F
$$

COZ017>023-064>068-232300-
...SOUTHWEST COLORADO...

CITY           SKY/WX    TMP DP  RH WIND       PRES   REMARKS
DURANGO        FAIR      69  20  15 SW8G18    29.98F
CORTEZ         FAIR      75  22  13 S18G26    29.91F
PAGOSA SPRINGS FAIR      66  12  12 SW15G23   30.05F
TELLURIDE      FAIR      60  15  17 E3G23     30.07F
WOLF CREEK PAS FAIR      41  21  45 S29G40    30.25F
$$

COZ009-010-012-014-032>034-037-058>063-232300-
...CENTRAL COLORADO...

CITY           SKY/WX    TMP DP  RH WIND       PRES   REMARKS
ASPEN          FAIR      67  19  16 S8G15     29.90F
BUENA VISTA    PTSUNNY   65  20  18 SE26      29.92F
COPPER MTN     FAIR      46   9  21 W13G21    30.15F
BERTHOUD PASS  FAIR      41  30  65 SW17      30.17F
COTTONWOOD PAS FAIR      61   7  11 SW10G22   30.04F
GUNNISON       FAIR      67  24  19 W8        29.92F
KREMMLING      FAIR      73  18  12 SW14G22   29.86F
LEADVILLE      FAIR      57  13  17 W16G23    30.03F
MONARCH PASS   FAIR      45  23  42 SW24G33   30.27F
SALIDA         FAIR      68  22  17 S16G29    29.99F
SUNLIGHT       FAIR      45  21  39 SW9G23    30.10F
WILKERSON PASS FAIR      54  18  24 S7G24     30.14F
$$

COZ069>075-232300-
...SAN LUIS VALLEY/SANGRE DE CRISTO MOUNTAINS...

CITY           SKY/WX    TMP DP  RH WIND       PRES   REMARKS
ALAMOSA        FAIR      68  18  14 SW23      29.98F
LA VETA PASS   FAIR      54  27  35 MISG      30.20F
SAGUACHE       FAIR      64  27  24 S21G29    29.97F
$$

COZ035-036-038>040-232300-
...NORTHERN COLORADO FRONT RANGE...

CITY           SKY/WX    TMP DP  RH WIND       PRES   REMARKS
DENVER INTL AP PTSUNNY   76  25  15 SE16G23   29.75F
DMNS CITY PARK   N/A     75  27  16 NE6G25    29.72F
AURORA         PTSUNNY   74  31  20 SE21G30   29.74F
FRONT RANGE AP PTSUNNY   75  32  20 SE20G30   29.76F
ERIE MUNI ARPT FAIR      77  14   9 SE8       29.74F
BOULDER MUN AP FAIR      73  23  15 NE3       29.74F
CENTENNIAL     PTSUNNY   72  34  24 S20G28    29.75F
BROOMFIELD     PTSUNNY   73  19  13 E5        29.77F
FORT COLLINS   FAIR      67  42  40 E7        29.77F
LONGMONT       FAIR      77  32  19 NE9       29.75F
$$

COZ041-046-047-076>085-087-088-232300-
...PIKES PEAK/PALMER DIVIDE AND SOUTHERN FOOTHILLS...

CITY           SKY/WX    TMP DP  RH WIND       PRES   REMARKS
COLO. SPRINGS  PTSUNNY   64  34  32 SE20G26   29.87F
A. F. ACADEMY  FAIR      62  34  35 SE18      29.87F
SCHRIEVER AFB  FAIR      63  36  36 S20       29.88F
ELLICOTT       FAIR     N/A N/A N/A S20G25    29.85F
FALCON         FAIR      60  32  34 S17G24    29.91F
FORT CARSON    FAIR      65  34  31 SE15      29.85F
LIMON          FAIR      66  38  35 S18G26    29.84F
MONUMENT HILL  FAIR      59  34  38 S25       29.88F
TRINIDAD       FAIR      76  30  18 S10G24    29.84F
$$

COZ042>045-048>051-090-091-232300-
...NORTHEAST COLORADO...

CITY           SKY/WX    TMP DP  RH WIND       PRES   REMARKS
GREELEY ARPT   FAIR      70  41  34 E10       29.75F
AKRON          FAIR      69  37  30 S21G30    29.79F
BURLINGTON     NOT AVBL
WRAY           NOT AVBL
STERLING       FAIR      72  41  33 S20G26    29.74F
HOLYOKE        FAIR      73  41  31 S25G32    29.79F
FORT MORGAN    FAIR      76  29  17 SE8       29.75F
$$

COZ086-089-092>099-232300-
...SOUTHEAST COLORADO...

CITY           SKY/WX    TMP DP  RH WIND       PRES   REMARKS
PUEBLO         FAIR      71  38  29 VRB3      29.80F
LA JUNTA       FAIR      78  32  18 SE13G18   29.79F
LAMAR          FAIR      79  35  20 S25G35    29.79F
SPRINGFIELD      N/A     72  35  25 S31G39    29.88F
$$



USA.gov is the U.S. government's official web portal to all federal, state and local government web resources and services.